Tullahoma, TN

9:28 PM CST on December 10, 2017 (GMT -0600)
Tullahoma Regional-Northern

Weather History for KTHA - January, 2013

Change the Weather History Date:

Wednesday, January 30, 2013

  Actual Average Record
Temperature  
Mean Temperature 51 °F -  
Max Temperature 69 °F 49 °F 69 °F (2013)
Min Temperature 33 °F 30 °F 1 °F (2014)
Degree Days  
Heating Degree Days 14    
Growing Degree Days 1 (Base 50)    
Moisture  
Dew Point 47 °F    
Average Humidity 84    
Maximum Humidity 100    
Minimum Humidity 65    
Precipitation  
Precipitation 0.00 in - - ()
Sea Level Pressure  
Sea Level Pressure 29.65 in    
Wind  
Wind Speed 15 mph (SW)    
Max Wind Speed 26 mph    
Max Gust Speed 47 mph    
Visibility 8 miles    
Events      
Averages and records for this station are not official NWS values.
T = Trace of Precipitation, MM = Missing Value Source: NWS Daily Summary

Daily Weather History Graph

Daily Weather History Graph

Search for Another Location

Airport or City:

Trip Planner

Search our weather history database for the weather conditions in past years. The results will help you decide how hot, cold, wet, or windy it might be!

Date:

Astronomy

Jan. 30, 2013 Rise Set
Actual Time 6:45 AM CST 5:11 PM CST
Civil Twilight 6:18 AM CST 5:38 PM CST
Nautical Twilight 5:48 AM CST 6:08 PM CST
Astronomical Twilight 5:18 AM CST 6:38 PM CST
Moon 8:58 PM CST (1/30) 8:23 AM CST (1/30)
Length of Visible Light 11h 19m
Length of Day
10h 25m
Waning Gibbous, 87% of the Moon is Illuminated
Jan 30
Waning Gibbous
Feb 3
Last Quarter
Feb 10
New
Feb 17
First Quarter
Feb 25
Full

Hourly Weather History & Observations

Time (CST) Temp. Windchill Dew Point Humidity Pressure Visibility Wind Dir Wind Speed Gust Speed Precip Events Conditions
12:15 AM 66.2 °F - 59.0 °F 78% 29.72 in 10.0 mi South 19.6 mph - N/A   Overcast
12:35 AM 66.2 °F - 59.0 °F 78% 29.71 in 10.0 mi South 18.4 mph - N/A   Overcast
12:55 AM 68.0 °F - 60.8 °F 78% 29.71 in 10.0 mi South 17.3 mph - N/A   Overcast
1:15 AM 68.0 °F - 60.8 °F 78% 29.70 in 10.0 mi South 15.0 mph - N/A   Overcast
1:55 AM 68.0 °F - 59.0 °F 73% 29.67 in 10.0 mi South 18.4 mph - N/A   Overcast
2:15 AM 68.0 °F - 60.8 °F 78% 29.66 in 10.0 mi South 15.0 mph - N/A   Overcast
2:35 AM 68.0 °F - 60.8 °F 78% 29.65 in 10.0 mi South 19.6 mph - N/A   Overcast
2:55 AM 69.8 °F - 60.8 °F 73% 29.64 in 10.0 mi SSW 25.3 mph - N/A   Overcast
3:15 AM 69.8 °F - 60.8 °F 73% 29.63 in 10.0 mi South 13.8 mph - N/A   Overcast
3:35 AM 69.8 °F - 60.8 °F 73% 29.61 in 10.0 mi South 20.7 mph 33.4 mph N/A   Overcast
3:55 AM 69.8 °F - 60.8 °F 73% 29.61 in 10.0 mi South 21.9 mph 34.5 mph N/A   Overcast
4:15 AM 69.8 °F - 60.8 °F 73% 29.61 in 10.0 mi South 23.0 mph 47.2 mph N/A   Overcast
4:35 AM 69.8 °F - 60.8 °F 73% 29.61 in 10.0 mi SSW 26.5 mph 35.7 mph N/A   Overcast
4:55 AM 69.8 °F - 60.8 °F 73% 29.60 in 10.0 mi SSW 18.4 mph 36.8 mph N/A   Overcast
5:15 AM 68.0 °F - 60.8 °F 78% 29.60 in 10.0 mi SSW 19.6 mph 27.6 mph N/A   Overcast
5:35 AM 55.4 °F - 53.6 °F 94% 29.65 in 2.0 mi WNW 11.5 mph - N/A   Overcast
5:55 AM 53.6 °F - 51.8 °F 94% 29.67 in 3.0 mi NW 5.8 mph - N/A   Overcast
6:15 AM 53.6 °F - 51.8 °F 94% 29.66 in 4.0 mi NW 9.2 mph - N/A   Overcast
6:35 AM 53.6 °F - 51.8 °F 94% 29.67 in 5.0 mi NW 3.5 mph - N/A   Mostly Cloudy
6:55 AM 53.6 °F - 51.8 °F 94% 29.66 in 6.0 mi Calm Calm - N/A   Overcast
7:15 AM 53.6 °F - 51.8 °F 94% 29.66 in 6.0 mi Calm Calm - N/A   Mostly Cloudy
7:35 AM 53.6 °F - 53.6 °F 100% 29.65 in 9.0 mi SE 5.8 mph - N/A   Mostly Cloudy
7:55 AM 53.6 °F - 53.6 °F 100% 29.64 in 7.0 mi ESE 5.8 mph - N/A   Mostly Cloudy
8:15 AM 53.6 °F - 53.6 °F 100% 29.64 in 3.0 mi SE 5.8 mph - N/A   Overcast
8:35 AM 53.6 °F - 53.6 °F 100% 29.65 in 4.0 mi SSE 5.8 mph - N/A   Overcast
8:55 AM 53.6 °F - 53.6 °F 100% 29.62 in 4.0 mi SSE 5.8 mph - N/A   Overcast
9:15 AM 53.6 °F - 53.6 °F 100% 29.62 in 4.0 mi South 5.8 mph - N/A   Overcast
9:35 AM 53.6 °F - 51.8 °F 94% 29.63 in 4.0 mi SSW 10.4 mph - N/A   Overcast
9:55 AM 53.6 °F - 51.8 °F 94% 29.62 in 5.0 mi SSW 8.1 mph - N/A   Overcast
10:15 AM 53.6 °F - 51.8 °F 94% 29.63 in 5.0 mi SSW 10.4 mph - N/A   Mostly Cloudy
10:35 AM 51.8 °F - 50.0 °F 94% 29.63 in 3.0 mi SW 9.2 mph - N/A   Mostly Cloudy
10:55 AM 51.8 °F - 48.2 °F 88% 29.60 in 5.0 mi SSE 9.2 mph - N/A   Overcast
11:15 AM 51.8 °F - 50.0 °F 94% 29.60 in 10.0 mi South 8.1 mph - N/A   Mostly Cloudy
11:35 AM 51.8 °F - 50.0 °F 94% 29.59 in 8.0 mi South 6.9 mph - N/A   Mostly Cloudy
11:55 AM 51.8 °F - 50.0 °F 94% 29.60 in 9.0 mi SSW 11.5 mph - N/A   Overcast
12:15 PM 51.8 °F - 48.2 °F 88% 29.58 in 8.0 mi SSW 8.1 mph - N/A   Mostly Cloudy
12:35 PM 51.8 °F - 48.2 °F 88% 29.57 in 10.0 mi SSW 9.2 mph - N/A   Mostly Cloudy
12:55 PM 51.8 °F - 48.2 °F 88% 29.58 in 10.0 mi SW 8.1 mph - N/A   Mostly Cloudy
1:15 PM 50.0 °F - 46.4 °F 87% 29.58 in 10.0 mi SSW 9.2 mph - N/A   Mostly Cloudy
1:35 PM 50.0 °F - 46.4 °F 87% 29.56 in 10.0 mi SSW 9.2 mph - N/A   Mostly Cloudy
1:55 PM 50.0 °F - 46.4 °F 87% 29.57 in 10.0 mi SW 6.9 mph - N/A   Mostly Cloudy
2:15 PM 51.8 °F - 46.4 °F 82% 29.57 in 10.0 mi SSW 5.8 mph - N/A   Mostly Cloudy
2:35 PM 50.0 °F - 46.4 °F 87% 29.56 in 10.0 mi South 8.1 mph - N/A   Mostly Cloudy
2:55 PM 51.8 °F - 48.2 °F 88% 29.56 in 10.0 mi SSW 12.7 mph - N/A   Mostly Cloudy
3:15 PM 50.0 °F - 48.2 °F 94% 29.56 in 10.0 mi South 8.1 mph - N/A   Mostly Cloudy
3:35 PM 50.0 °F - 48.2 °F 94% 29.55 in 10.0 mi South 8.1 mph - N/A   Mostly Cloudy
3:55 PM 51.8 °F - 48.2 °F 88% 29.55 in 10.0 mi South 9.2 mph - N/A   Mostly Cloudy
4:15 PM 51.8 °F - 48.2 °F 88% 29.55 in 10.0 mi South 11.5 mph - N/A   Mostly Cloudy
4:35 PM 51.8 °F - 46.4 °F 82% 29.55 in 10.0 mi SW 16.1 mph - N/A   Mostly Cloudy
4:55 PM 48.2 °F - 42.8 °F 82% 29.56 in - West 17.3 mph - N/A   Unknown
5:15 PM 46.4 °F 40.1 °F 42.8 °F 87% 29.57 in - WSW 15.0 mph - N/A   Unknown
5:35 PM 46.4 °F 40.7 °F 42.8 °F 87% 29.57 in - SW 12.7 mph - N/A   Unknown
5:55 PM 46.4 °F 39.5 °F 42.8 °F 87% 29.59 in 8.0 mi West 17.3 mph - N/A   Overcast
6:15 PM 44.6 °F 35.9 °F 39.2 °F 81% 29.61 in 10.0 mi WNW 23.0 mph - N/A   Overcast
6:35 PM 44.6 °F 36.4 °F 39.2 °F 81% 29.63 in 10.0 mi WNW 20.7 mph 26.5 mph N/A   Overcast
6:55 PM 42.8 °F 33.8 °F 37.4 °F 81% 29.66 in 8.0 mi West 21.9 mph 28.8 mph N/A   Overcast
7:15 PM 41.0 °F 32.8 °F 37.4 °F 87% 29.68 in 10.0 mi West 16.1 mph - N/A   Overcast
7:35 PM 41.0 °F 34.3 °F 35.6 °F 81% 29.69 in 10.0 mi West 11.5 mph - N/A   Overcast
7:55 PM 39.2 °F 31.2 °F 33.8 °F 81% 29.70 in 10.0 mi West 13.8 mph - N/A   Overcast
8:15 PM 39.2 °F 29.8 °F 33.8 °F 81% 29.71 in 10.0 mi West 18.4 mph - N/A   Overcast
8:35 PM 39.2 °F 30.8 °F 33.8 °F 81% 29.73 in 10.0 mi West 15.0 mph - N/A   Overcast
8:55 PM 37.4 °F 27.8 °F 32.0 °F 81% 29.75 in 10.0 mi WNW 17.3 mph - N/A   Overcast
9:15 PM 37.4 °F 27.5 °F 30.2 °F 75% 29.77 in 10.0 mi WNW 18.4 mph - N/A   Overcast
9:35 PM 35.6 °F 24.0 °F 28.4 °F 75% 29.80 in 10.0 mi WNW 23.0 mph - N/A   Overcast
9:55 PM 35.6 °F 23.4 °F 26.6 °F 70% 29.82 in 10.0 mi WNW 25.3 mph - N/A   Overcast
10:15 PM 35.6 °F 23.7 °F 24.8 °F 65% 29.84 in 10.0 mi WNW 24.2 mph - N/A   Overcast
10:35 PM 33.8 °F 21.9 °F 24.8 °F 70% 29.86 in 10.0 mi WNW 21.9 mph - N/A   Overcast
10:55 PM 33.8 °F 23.5 °F 24.8 °F 70% 29.87 in 10.0 mi West 16.1 mph - N/A   Overcast
11:15 PM 33.8 °F 23.2 °F 24.8 °F 70% 29.88 in 10.0 mi West 17.3 mph - N/A   Overcast
11:35 PM 33.8 °F 23.9 °F 23.0 °F 65% 29.90 in 10.0 mi WNW 15.0 mph - N/A   Overcast
11:55 PM 33.8 °F 23.5 °F 23.0 °F 65% 29.91 in 10.0 mi WNW 16.1 mph - N/A   Overcast